SWOT

Last updated on Mon Sep 07 2026 00:02:46 GMT+0000 (Coordinated Universal Time)

1 54754U 22173A 26249.58898897 .00000030 00000+0 22383-4 0 9999 2 54754 77.6086 285.4254 0000174 218.3347 141.7792 14.00170746190541
UTC large
Height (km)
Speed (km/s)
/
Latitude / Longitude
Inclination (degrees)
Orbital Period (minutes)
Azimuth
Elevation
Range (km)
Doppler Factor

Next 0 passes for location: London (51.5072 / 0.1276)

No passes found over London.
SWOT